Location: Kernascl�den
(48.0062°N, 3.3198°W)
Time: 22:17:49
(UTC+00:00)

Cosmos 2098 Rocket - Pass Details

Date: 21 January 2021
Orbit: 366 x 1182 km, 82.9° (Epoch: 03 March)

Event Time Altitude Azimuth Distance (km) Brightness Sun altitude
Rises 19:27:44 0° 183° (S) 3,853 7.2 -24.9°
Reaches altitude 10° 19:30:14 10° 182° (S) 2,972 6.6 -25.4°
Maximum altitude 19:37:22 82° 97° (E) 1,194 4.2 -26.5°
Drops below altitude 10° 19:44:50 10° 11° (N) 3,094 6.5 -27.8°
Sets 19:47:29 0° 10° (N) 4,019 7.1 -28.2°
